Location: Bremen
(53.0793°N, 8.8017°E)
Time: 08:58:03
(UTC+01:00)

Vanguard 1 Rocket - Pass Details

Date: 04 December 2021
Orbit: 651 x 4224 km, 34.3° (Epoch: 23 January)

Event Time Altitude Azimuth Distance (km) Brightness Sun altitude
Rises 07:07:11 0° 264° (W) 6,015 - -10.2°
Exits shadow 07:07:59 - 263° (W) 5,882 11.0 -10.1°
Reaches altitude 10° 07:11:01 10° 256° (WSW) 5,438 10.9 -9.7°
Maximum altitude 07:26:17 36° 198° (SSW) 4,909 11.2 -7.6°
Drops below altitude 10° 07:47:32 10° 144° (SE) 7,423 13.4 -4.9°
Sets 07:54:07 0° 137° (SE) 8,371 14.3 -4.0°
